Temp
83 84 80 82 82 82 80 78 76 81 85 80 78 79 79 81 80 80 81 82 84 85 89 89 89 89 89 87 86 85 83 82 81 79 77 78 78 77 73 72 74 74 73 72
82 80 83 85 83 81 79 76 77 81 82 81 76 77 80 81 79 82 82 82 83 85 85 86 85 88 88 88 85 84 83 82 81 82 79 79 79 79 80 77 76 76 75 74
79 82 83 83 80 79 79 77 77 77 79 80 77 75 75 81 82 82 84 85 85 84 84 83 81 85 88 86 85 84 83 82 80 80 79 78 78 79 78 75 74 74 76 76
79 83 81 81 80 83 78 83 80 79 78 73 78 72 72 77 77 79 82 84 86 83 85 86 84 82 84 85 86 82 81 80 78 78 78 77 77 74 78 76 78 81 78 76
78 78 78 79 82 84 81 82 79 78 77 74 73 73 79 72 73 77 81 84 85 81 83 84 79 79 81 83 84 81 80 78 77 75 74 73 73 76 77 78 82 81 81 82
80 82 83 84 84 85 85 81 76 75 76 69 71 73 78 75 73 77 81 84 83 80 80 78 78 79 81 80 76 78 77 75 74 73 71 70 70 73 75 77 79 81 82 83
75 78 83 85 81 82 82 80 71 68 68 70 71 71 79 77 77 76 77 82 82 80 76 76 76 77 76 77 79 77 71 70 72 72 72 70 69 72 72 73 77 74 75 80
70 68 79 84 83 80 80 82 72 60 65 70 70 70 81 77 77 76 77 81 79 78 77 77 79 78 78 76 78 75 70 69 70 72 69 69 68 69 70 71 72 73 72 71
68 69 79 81 85 86 76 75 81 72 68 69 71 73 80 78 75 73 74 76 77 78 77 78 80 79 76 76 78 76 73 74 74 72 70 69 68 69 69 69 70 71 73 73
75 69 77 81 84 81 82 82 73 73 62 61 67 66 75 72 73 72 73 74 75 76 77 79 79 78 77 77 76 76 75 72 72 72 72 70 69 70 70 70 69 69 70 70
79 75 73 77 79 78 76 76 72 76 72 68 65 71 82 76 77 75 74 74 75 76 76 78 76 75 74 75 76 75 73 72 71 71 70 69 69 69 70 70 69 68 69 68
80 78 70 75 81 80 81 79 80 72 66 68 71 74 76 75 79 76 73 74 75 73 75 75 74 73 73 72 74 72 72 71 72 71 70 70 70 70 70 69 69 70 68 68
77 73 66 70 75 75 77 78 80 77 77 66 69 74 71 74 73 74 73 72 70 67 72 71 72 70 68 68 70 72 72 70 71 72 72 71 70 70 69 68 68 68 68 67
78 77 72 67 72 78 73 74 75 79 72 74 75 79 69 71 71 70 72 72 68 67 71 69 69 69 70 70 70 69 70 71 72 71 69 68 68 68 69 68 68 68 67 66
81 73 73 77 79 78 79 77 74 73 78 74 80 75 83 74 73 72 73 72 70 67 70 70 70 70 70 69 69 70 70 69 70 68 68 66 67 68 67 66 66 67 66 65
74 71 69 72 75 75 75 78 77 77 76 75 75 75 76 78 75 70 71 72 71 71 71 71 71 71 71 70 69 69 68 68 68 67 66 66 67 66 66 65 65 64 64 64
73 72 68 68 72 71 68 76 77 77 79 80 73 82 73 71 71 71 71 72 72 72 72 72 72 72 72 71 70 68 67 68 67 66 66 66 66 65 64 64 64 63 63 63
69 68 69 68 68 59 78 78 83 79 78 80 79 74 75 76 77 76 77 75 74 73 72 72 73 72 72 73 71 68 68 66 65 65 65 65 65 64 64 64 63 63 64 63
74 70 64 65 66 68 73 75 77 77 81 80 79 73 75 75 75 73 77 78 77 75 74 74 73 73 71 70 69 67 67 66 66 65 65 65 65 64 64 63 63 63 64 63
70 71 71 63 63 61 77 83 83 83 74 80 78 73 72 75 72 74 76 78 77 76 75 73 71 70 69 68 68 66 65 64 64 64 65 65 65 64 64 63 63 63 64 64
66 66 67 67 67 72 78 80 84 70 77 81 81 77 75 78 80 79 78 75 76 74 72 71 71 70 68 68 68 65 64 63 65 66 66 65 66 65 64 64 64 64 64 64
68 65 66 64 63 64 79 78 77 85 79 83 81 79 79 75 75 75 74 72 71 70 68 71 69 68 68 67 66 64 64 65 65 66 65 65 65 68 68 65 65 64 64 64
64 70 70 71 73 73 81 81 86 86 80 79 80 81 77 73 73 71 70 69 69 69 69 70 68 66 66 66 67 65 64 65 66 66 66 65 65 66 66 64 65 67 66 66
67 66 68 67 78 73 77 82 80 84 83 83 83 78 77 73 72 71 69 69 69 69 68 69 67 66 64 65 66 66 65 66 66 66 66 66 66 64 66 68 69 68 68 68
69 67 66 68 73 73 77 77 82 80 83 81 78 77 73 73 71 70 68 68 68 68 68 68 67 66 64 65 65 67 66 66 66 66 67 67 69 67 68 68 69 69 68 66
66 69 70 73 71 71 72 75 80 78 77 76 75 73 74 74 69 69 68 68 67 66 67 67 67 66 64 65 65 65 66 65 65 66 68 70 70 71 71 70 70 54 52 50
MSLP
1004.42 1004.00 1003.87 1004.22 1004.40 1004.51 1004.65 1004.72 1004.74 1004.56 1004.68 1005.12 1005.26 1005.69 1006.48 1007.16 1008.03 1008.49 1008.91 1009.09 1009.28 1009.15 1009.15 1009.77 1009.94 1009.90 1010.59 1011.25 1011.86 1012.34 1012.99 1013.43 1014.07 1014.59 1014.93 1015.22 1015.44 1015.88 1016.38 1016.04 1015.74 1015.89 1015.80 1015.42
1004.45 1003.82 1004.17 1004.36 1004.59 1004.56 1004.68 1004.80 1004.53 1004.43 1004.52 1004.64 1005.01 1005.26 1005.99 1006.35 1006.89 1007.61 1008.00 1008.19 1008.11 1008.49 1009.37 1009.60 1009.40 1009.62 1009.71 1010.53 1011.24 1011.90 1012.42 1013.14 1013.89 1014.28 1014.92 1015.27 1015.41 1015.50 1015.40 1015.36 1015.03 1015.20 1014.77 1015.10
1003.82 1003.95 1004.22 1004.24 1004.60 1004.44 1004.54 1004.58 1004.49 1004.42 1004.40 1004.63 1004.70 1004.69 1005.27 1005.67 1006.61 1007.12 1007.41 1007.53 1008.13 1008.65 1009.15 1009.34 1009.85 1010.09 1010.00 1010.57 1011.22 1011.73 1012.29 1012.89 1013.86 1014.76 1015.05 1015.43 1015.59 1015.43 1015.25 1015.47 1014.94 1014.36 1014.21 1014.13
1004.16 1004.11 1004.07 1004.02 1003.92 1003.96 1003.79 1004.19 1004.40 1004.16 1004.06 1004.13 1004.75 1004.33 1004.79 1005.18 1005.79 1006.44 1006.67 1007.12 1007.86 1008.66 1009.07 1009.08 1010.11 1010.50 1010.89 1010.57 1011.17 1011.87 1012.54 1013.46 1014.17 1014.78 1015.03 1015.28 1015.38 1015.22 1014.99 1015.08 1014.72 1014.06 1013.91 1014.00
1003.78 1003.91 1003.68 1003.44 1003.36 1003.66 1003.48 1003.93 1004.21 1004.05 1004.12 1004.34 1004.58 1004.82 1004.37 1005.20 1005.24 1005.71 1006.03 1006.57 1007.83 1008.70 1009.24 1009.69 1010.25 1010.25 1010.79 1010.94 1010.61 1011.67 1012.46 1013.27 1014.00 1014.51 1014.86 1014.98 1015.44 1015.44 1015.10 1015.16 1014.59 1014.28 1013.86 1013.61
1003.84 1003.92 1003.58 1003.18 1003.39 1003.47 1003.46 1003.70 1004.09 1004.43 1004.24 1004.11 1004.56 1004.63 1003.81 1004.62 1005.01 1005.27 1005.82 1006.72 1007.86 1008.83 1009.28 1009.80 1010.36 1010.33 1010.81 1011.72 1011.43 1011.42 1012.44 1013.86 1014.04 1013.72 1014.35 1013.96 1014.58 1015.17 1015.21 1014.92 1014.66 1014.54 1014.08 1013.88
1004.02 1003.70 1003.54 1003.32 1003.12 1003.43 1003.27 1003.06 1003.22 1003.60 1003.81 1003.77 1004.84 1004.87 1003.53 1004.37 1005.22 1005.84 1006.58 1006.86 1007.85 1008.72 1009.57 1010.06 1010.28 1010.99 1011.45 1011.88 1011.90 1012.22 1012.37 1013.42 1014.04 1013.66 1013.32 1012.76 1014.15 1015.46 1015.63 1015.39 1015.09 1014.86 1014.74 1014.31
1003.46 1003.56 1003.28 1002.94 1002.68 1002.54 1002.71 1002.59 1002.73 1003.21 1003.46 1003.98 1004.77 1004.20 1003.51 1004.66 1005.61 1006.42 1006.78 1007.03 1008.24 1008.83 1009.59 1010.15 1010.58 1011.28 1011.69 1012.37 1012.54 1013.03 1013.86 1014.77 1013.93 1013.80 1013.72 1013.83 1013.53 1016.48 1016.58 1016.36 1016.12 1015.76 1015.43 1015.35
1003.34 1003.23 1003.01 1002.76 1002.41 1002.49 1002.90 1002.92 1003.08 1003.18 1004.26 1003.94 1004.01 1004.07 1003.84 1004.72 1005.87 1006.76 1007.33 1007.88 1008.28 1008.88 1009.64 1010.10 1010.50 1011.14 1011.79 1012.48 1012.82 1013.28 1013.71 1014.63 1014.10 1014.02 1013.65 1014.82 1015.13 1016.56 1016.74 1016.73 1016.71 1016.30 1016.10 1015.73
1003.21 1002.98 1002.90 1002.50 1002.57 1002.81 1002.36 1002.72 1003.08 1003.08 1003.10 1003.14 1003.47 1003.78 1003.57 1004.53 1005.56 1006.67 1007.48 1008.10 1008.71 1009.28 1009.89 1010.32 1010.78 1011.33 1011.94 1012.74 1013.25 1013.36 1013.96 1014.61 1014.45 1014.52 1014.50 1015.07 1015.68 1016.16 1016.65 1016.91 1016.59 1016.48 1016.36 1016.26
1003.09 1003.08 1003.03 1002.80 1002.08 1001.95 1002.66 1002.45 1002.97 1002.77 1002.91 1002.46 1002.65 1002.77 1002.97 1004.01 1005.07 1006.25 1007.63 1008.36 1008.94 1009.46 1010.00 1010.50 1011.15 1011.82 1012.40 1012.92 1013.36 1013.80 1014.58 1015.17 1015.62 1015.46 1015.23 1015.64 1016.10 1016.54 1017.10 1017.02 1016.86 1016.85 1016.89 1016.74
1002.75 1002.57 1002.44 1002.17 1002.22 1002.42 1002.10 1001.91 1002.03 1001.90 1002.78 1003.01 1002.76 1002.62 1003.44 1004.36 1005.07 1006.18 1007.70 1008.75 1009.55 1010.17 1010.54 1011.10 1011.69 1012.23 1012.72 1013.28 1013.64 1014.32 1015.12 1015.60 1015.76 1015.64 1015.79 1015.93 1016.30 1016.71 1017.04 1017.10 1017.13 1017.19 1016.96 1016.69
1002.38 1002.26 1002.10 1002.01 1002.36 1002.48 1001.83 1001.78 1001.79 1002.00 1002.09 1002.22 1002.05 1002.49 1003.85 1004.78 1005.65 1006.67 1007.66 1008.98 1010.13 1010.86 1011.19 1011.68 1012.24 1012.81 1013.25 1013.87 1014.32 1014.63 1015.22 1015.46 1015.34 1015.28 1015.38 1015.86 1016.36 1016.84 1017.20 1017.36 1017.22 1017.07 1017.19 1017.08
1001.71 1001.55 1001.31 1001.01 1000.96 1001.05 1001.24 1001.47 1001.69 1001.47 1001.18 1001.10 1001.29 1001.75 1003.47 1004.60 1005.66 1006.75 1007.80 1008.99 1010.16 1010.91 1011.34 1011.99 1012.65 1013.35 1013.76 1014.13 1014.50 1014.84 1015.07 1015.27 1015.42 1015.76 1015.98 1016.31 1016.88 1017.17 1017.24 1017.15 1017.22 1017.23 1017.00 1016.91
1001.68 1001.14 1001.31 1000.90 1000.56 1000.74 1000.67 1000.80 1001.19 1001.03 1000.64 1000.46 1000.20 1001.43 1001.47 1003.58 1004.76 1006.30 1007.57 1008.90 1009.89 1010.82 1011.49 1012.18 1012.74 1013.48 1014.09 1014.43 1014.69 1014.83 1015.10 1015.31 1015.58 1015.97 1016.41 1016.99 1017.38 1017.43 1017.46 1017.37 1017.30 1017.20 1017.14 1016.81
1002.05 1001.57 1001.50 1000.72 1000.66 1000.64 1000.24 1000.15 1000.33 1000.39 1000.71 1000.81 1000.81 1001.23 1001.98 1003.61 1005.20 1006.46 1007.47 1008.41 1009.27 1010.22 1011.21 1012.16 1012.71 1013.41 1013.90 1014.33 1014.63 1015.22 1015.80 1016.36 1016.72 1017.18 1017.44 1017.56 1017.57 1017.35 1017.54 1017.44 1017.69 1017.75 1017.83 1017.71
1002.14 1001.62 1001.52 1000.68 1000.57 1000.54 1000.07 999.48 999.60 999.68 999.97 999.87 1000.46 1000.28 1002.08 1003.60 1004.62 1005.83 1006.89 1007.85 1008.77 1009.71 1010.74 1011.74 1012.62 1013.33 1014.05 1014.59 1015.16 1015.77 1016.41 1016.85 1017.11 1017.38 1017.52 1017.48 1017.57 1017.62 1017.88 1017.98 1018.15 1018.30 1018.36 1018.21
1002.24 1001.92 1001.48 1001.00 1000.87 999.98 998.74 999.08 998.85 999.11 999.29 999.71 1000.57 1000.88 1002.02 1003.25 1004.52 1005.75 1006.74 1007.50 1008.54 1009.54 1010.59 1011.49 1012.45 1013.51 1014.29 1014.86 1015.48 1016.08 1016.60 1016.90 1017.27 1017.54 1017.45 1017.53 1017.78 1017.83 1018.20 1018.36 1018.53 1018.73 1018.61 1018.24
1002.17 1001.92 1001.47 1000.94 1000.10 999.54 999.00 998.83 998.58 998.54 998.48 999.37 1000.19 1001.41 1002.62 1003.84 1004.90 1006.01 1006.69 1007.46 1008.16 1009.29 1010.44 1011.51 1012.58 1013.66 1014.39 1014.99 1015.77 1016.31 1016.63 1017.02 1017.34 1017.46 1017.50 1017.83 1018.04 1018.23 1018.40 1018.51 1018.61 1018.75 1018.41 1018.16
1002.19 1001.93 1001.01 1001.03 999.67 998.63 997.73 997.66 998.26 998.44 998.32 999.03 1000.06 1001.06 1002.14 1003.19 1003.64 1004.50 1006.32 1007.34 1008.27 1009.53 1010.54 1011.64 1012.81 1014.04 1014.75 1015.47 1016.06 1016.44 1016.94 1017.40 1017.55 1017.70 1018.02 1018.31 1018.44 1018.55 1018.48 1018.44 1018.48 1018.62 1018.50 1018.36
1001.90 1001.68 1000.81 1000.19 999.45 998.42 997.73 997.88 998.19 998.28 997.76 998.20 999.29 1000.62 1001.82 1002.24 1002.68 1003.77 1006.24 1007.72 1008.84 1009.81 1010.92 1012.19 1013.15 1013.93 1015.02 1015.83 1016.28 1016.82 1017.42 1017.57 1017.81 1018.05 1018.21 1018.49 1018.62 1018.61 1018.55 1018.57 1018.60 1018.60 1018.48 1018.24
1001.27 1000.92 1000.59 1000.44 999.63 998.52 998.08 998.38 997.56 996.58 997.21 997.74 999.16 1000.34 1001.64 1002.67 1003.61 1004.96 1006.62 1007.98 1009.13 1010.18 1011.58 1012.46 1013.28 1014.36 1015.43 1016.22 1016.68 1017.00 1017.33 1017.67 1018.04 1018.12 1018.47 1018.73 1018.62 1018.41 1018.49 1018.63 1018.54 1018.44 1018.22 1017.93
1001.72 1000.94 1000.54 1000.11 999.04 998.49 997.56 997.26 996.59 996.63 997.05 997.98 998.93 1000.22 1001.36 1002.52 1004.19 1005.69 1007.13 1008.44 1009.69 1010.70 1011.73 1012.84 1013.76 1014.80 1015.75 1016.29 1016.54 1016.78 1017.29 1017.77 1018.03 1018.17 1018.39 1018.48 1018.54 1018.59 1018.58 1018.42 1018.19 1017.85 1017.75 1017.51
1001.59 1001.70 1001.03 1000.38 998.38 998.50 998.05 997.74 997.81 997.36 997.33 998.38 999.11 1000.20 1001.61 1002.56 1004.66 1006.30 1007.72 1008.76 1009.89 1011.21 1012.25 1013.14 1014.10 1014.93 1015.66 1016.26 1016.71 1017.00 1017.61 1017.93 1018.09 1018.13 1018.22 1018.34 1018.37 1018.39 1018.33 1018.10 1017.85 1017.65 1017.59 1017.47
1001.84 1001.53 1000.71 1000.03 998.93 998.73 997.92 998.03 997.86 997.94 997.79 999.07 1000.80 1001.33 1001.93 1003.02 1005.08 1006.35 1007.91 1009.22 1010.50 1011.61 1012.64 1013.39 1014.05 1014.71 1015.53 1016.17 1016.70 1017.09 1017.64 1017.98 1018.11 1018.13 1018.14 1018.13 1018.03 1017.99 1017.82 1017.69 1017.59 1017.53 1017.61 1017.62
1001.54 1000.48 1000.17 999.22 999.29 999.11 998.70 998.54 998.38 998.53 998.84 999.14 998.88 1002.52 1003.36 1003.73 1004.90 1006.79 1008.24 1009.55 1010.72 1011.72 1012.61 1013.53 1014.25 1014.94 1015.67 1016.30 1016.77 1017.21 1017.59 1017.83 1017.68 1017.78 1018.01 1017.92 1017.74 1017.59 1017.42 1017.18 1016.97 1017.20 1017.24 1017.31
Wind_Speed
2 6 8 6 3 4 2 3 5 7 4 10 16 12 13 17 15 14 13 13 13 14 11 9 11 13 12 10 10 11 11 10 7 5 3 4 5 4 6 5 9 7 6 7
5 10 5 8 6 4 1 2 4 6 7 9 2 12 11 17 19 16 15 15 16 13 10 7 10 10 11 11 11 9 9 8 7 5 2 1 1 2 3 4 6 6 9 9
9 4 12 8 9 6 3 3 3 4 2 2 3 4 8 13 13 14 15 14 12 11 10 9 6 6 7 7 8 8 7 5 3 2 3 2 1 3 3 3 4 6 9 11
5 5 9 7 6 5 7 7 4 3 5 4 3 4 3 8 13 16 17 16 13 11 12 11 3 7 6 4 4 5 5 5 5 4 2 4 5 6 4 5 5 5 6 8
5 7 8 11 11 7 5 2 3 2 2 3 5 4 1 2 9 16 18 16 12 12 12 9 8 8 4 3 10 9 11 13 13 11 7 5 7 8 5 6 4 2 3 1
4 1 2 2 7 3 2 3 3 3 2 4 2 6 4 4 2 6 11 12 14 15 12 8 8 7 6 9 10 13 16 13 11 11 9 9 11 11 6 3 3 3 3 3
2 4 1 2 2 4 4 4 3 4 4 1 3 6 8 4 4 6 5 7 15 16 12 10 5 4 8 6 9 10 13 9 8 6 2 11 13 11 5 4 3 4 4 4
10 7 9 7 9 5 5 7 4 5 3 1 2 5 2 2 3 5 3 7 14 15 12 10 8 6 7 8 6 7 5 6 6 10 13 13 18 4 4 6 5 5 5 6
5 7 2 5 6 8 6 6 2 5 1 4 2 4 10 7 2 3 7 11 13 12 12 11 8 7 7 7 6 4 9 10 12 13 14 13 11 7 5 5 4 5 6 6
7 2 2 3 4 4 4 10 5 1 5 5 4 4 7 6 8 5 6 9 9 10 10 9 6 5 5 5 6 8 10 11 12 13 13 11 11 8 6 5 7 7 7 7
8 6 3 4 6 8 5 5 3 3 2 5 5 4 3 4 12 12 9 9 10 9 8 7 6 6 6 8 10 13 12 12 10 11 13 11 10 9 6 6 8 7 6 6
11 10 11 12 1 2 2 2 6 5 6 1 4 4 1 1 10 12 11 11 10 8 9 9 9 8 8 8 10 12 11 10 10 11 11 11 10 8 7 7 7 6 8 8
11 7 7 6 6 3 7 5 6 2 2 8 8 6 4 6 10 10 14 12 9 11 12 11 10 9 10 10 11 12 11 10 10 10 12 11 10 8 7 7 7 7 6 6
13 8 10 10 6 4 7 7 8 11 5 7 10 11 8 12 13 13 13 12 10 10 12 11 11 11 11 10 11 11 11 9 9 10 11 10 9 8 7 7 7 7 7 8
9 11 11 14 13 11 12 9 9 12 10 9 7 12 10 17 19 16 15 13 13 13 12 12 13 11 11 11 10 10 10 10 11 10 9 8 5 6 7 8 9 9 10 10
4 2 6 7 9 10 11 9 10 13 9 11 6 11 4 16 16 16 16 16 16 16 15 14 13 12 11 11 11 10 9 8 7 6 6 6 6 8 9 9 9 10 9 9
4 6 6 6 6 8 8 14 12 8 9 8 11 6 13 19 19 20 19 17 17 17 17 16 14 12 11 11 10 9 8 7 7 7 6 6 7 8 9 9 8 8 8 8
3 4 3 3 9 8 2 1 10 11 5 12 7 6 13 14 15 15 15 17 17 16 16 15 13 12 11 11 10 9 8 8 7 6 7 7 7 7 7 7 7 7 6 8
12 5 4 4 8 2 3 6 10 12 12 15 8 12 14 16 16 13 14 14 16 16 15 14 13 13 12 11 9 8 8 7 6 7 8 6 5 5 5 6 6 6 6 8
8 3 5 4 5 8 6 9 7 3 9 14 14 18 23 20 11 10 17 15 16 16 15 15 15 13 12 10 9 9 8 6 5 5 5 4 4 5 5 5 5 5 4 5
5 4 9 6 5 3 4 7 9 7 6 20 19 21 22 13 3 15 19 16 16 16 17 17 15 13 11 9 8 8 7 6 5 4 4 3 3 4 4 4 3 3 4 4
5 6 4 3 5 7 9 9 10 7 1 17 17 21 18 12 18 22 20 20 19 19 19 17 14 12 11 9 9 9 8 6 4 5 5 4 3 2 3 2 2 3 4 4
5 4 2 7 5 3 15 4 5 6 7 16 19 20 17 21 21 21 20 20 19 20 17 15 14 14 11 10 9 10 8 6 5 5 5 3 2 1 2 4 4 4 3 5
6 4 4 3 6 12 10 13 10 7 10 15 16 22 19 23 22 20 19 19 18 17 17 15 15 14 12 9 8 8 7 6 5 5 3 0 2 2 3 3 3 4 5 5
3 6 3 6 12 8 13 12 7 5 14 16 14 17 21 24 21 22 20 19 17 16 15 14 13 12 12 10 9 8 6 5 4 2 1 2 1 2 1 1 2 3 2 3
6 6 6 4 3 5 3 5 8 11 13 21 28 18 16 21 25 21 18 17 17 17 15 13 12 12 11 10 9 7 6 5 4 3 3 1 1 1 1 2 3 9 9 7
Wind_Direction
110 192 216 159 111 135 184 264 327 284 291 215 226 233 191 191 200 207 207 199 214 225 227 228 218 203 217 227 226 218 219 222 200 192 198 228 235 201 190 202 224 224 208 194
166 215 155 152 161 144 205 342 290 284 326 209 246 232 214 199 206 206 208 210 211 214 220 227 232 225 200 218 218 220 221 213 212 205 138 125 157 191 243 218 239 243 239 215
211 150 160 154 158 180 186 221 295 311 347 119 196 229 208 221 210 206 219 224 225 218 207 209 190 205 206 218 233 225 220 214 174 180 125 103 302 270 250 233 257 244 249 270
221 165 191 184 195 214 275 201 265 297 328 330 322 308 226 231 219 215 220 216 214 196 203 221 83 34 2 108 141 156 169 111 106 118 67 350 325 305 312 299 274 265 242 260
166 177 189 217 232 192 247 170 324 29 223 239 173 256 99 301 235 225 220 218 198 178 183 160 135 119 80 150 120 110 105 105 102 93 85 68 352 304 304 296 304 95 120 358
162 315 207 208 139 186 133 164 89 87 167 225 103 238 267 219 225 257 231 209 183 164 164 153 133 120 93 76 89 114 101 110 122 127 137 87 31 341 307 323 340 7 35 32
161 211 189 194 218 155 190 202 244 237 199 328 54 214 268 210 251 286 303 223 171 170 167 154 138 124 96 107 117 111 123 144 148 133 187 93 55 7 14 16 14 52 37 27
200 205 198 175 224 256 186 224 205 246 222 23 139 234 290 176 351 360 342 160 154 170 167 162 170 135 117 129 129 91 57 96 99 95 73 61 77 16 24 29 20 17 21 16
162 224 243 218 185 198 152 197 81 138 121 234 162 258 256 232 135 63 110 147 164 163 166 176 179 168 155 159 166 126 85 112 110 105 95 91 92 105 80 50 36 36 23 7
187 159 205 141 167 77 255 141 167 211 192 232 182 264 265 181 181 159 154 140 147 152 162 168 158 138 143 114 85 110 105 93 90 87 92 94 93 83 69 59 54 45 27 14
159 222 164 219 197 179 155 172 67 116 288 248 239 226 227 190 171 168 152 144 153 158 161 160 132 106 101 100 107 107 103 102 98 99 91 92 86 81 73 59 48 38 32 17
185 207 223 229 307 354 245 230 215 237 177 234 302 243 69 148 167 150 145 135 125 123 138 133 124 126 113 95 121 115 115 109 106 99 96 86 82 77 67 58 56 46 35 25
174 210 202 201 182 141 222 194 206 176 141 200 221 235 110 140 141 144 144 139 126 127 132 126 123 115 112 116 121 116 113 101 85 76 74 72 66 66 65 58 45 42 30 18
177 186 217 223 224 207 201 195 201 218 206 193 224 238 186 176 159 151 150 141 139 135 133 126 126 130 126 124 118 108 96 91 85 75 70 69 64 59 51 47 41 32 28 24
192 211 201 231 231 214 236 231 195 210 235 223 228 217 239 181 166 163 153 149 142 143 143 143 142 139 138 128 114 99 81 64 56 57 60 66 71 65 55 47 37 31 26 30
182 213 196 239 219 219 239 243 213 226 228 252 255 251 144 157 146 154 160 160 154 153 153 152 145 146 138 126 114 104 98 93 94 100 99 100 82 63 51 48 53 50 50 51
212 170 176 229 191 175 238 234 214 212 219 202 212 226 148 163 164 165 165 166 163 161 156 156 154 146 141 131 117 108 105 116 106 94 87 76 75 75 71 68 58 50 46 50
203 186 196 134 155 221 217 256 222 213 258 199 247 149 170 169 156 162 168 166 167 164 161 155 150 142 138 128 120 124 123 110 109 107 95 83 77 73 74 66 62 59 52 49
216 184 156 197 208 348 199 192 184 189 233 193 179 141 148 138 135 159 179 182 173 164 157 151 144 145 141 132 124 118 112 111 109 86 71 67 73 88 91 81 70 52 45 44
171 237 257 171 200 204 209 185 165 150 250 182 177 160 158 158 163 175 177 171 160 154 147 146 144 143 131 128 137 128 123 125 130 128 122 117 105 94 90 68 53 35 25 31
164 189 222 192 249 254 229 149 149 188 226 175 177 165 164 173 69 136 152 153 152 147 144 143 144 139 134 141 128 139 156 163 133 136 129 124 115 92 58 42 34 357 344 345
210 194 187 160 205 248 159 137 192 207 299 174 168 163 163 117 123 137 143 144 145 141 141 147 140 138 138 144 158 152 158 137 136 121 133 139 123 63 42 360 343 323 325 322
239 243 238 221 214 344 199 313 222 164 164 171 164 162 149 133 140 144 144 145 145 146 146 145 143 144 153 158 163 155 139 152 157 156 148 128 69 339 309 306 313 312 324 334
200 176 226 265 217 236 247 253 276 224 158 172 164 153 150 136 144 142 145 145 145 146 148 148 149 152 150 152 154 138 149 156 161 155 154 234 273 317 297 280 299 323 338 347
9 168 188 264 276 264 252 246 238 213 150 140 138 154 143 141 148 148 145 144 143 145 147 151 156 150 144 145 151 151 149 156 156 139 196 237 271 305 330 330 304 312 313 319
195 190 198 253 358 308 293 324 196 171 164 151 136 151 148 149 144 143 140 143 147 148 147 150 146 143 142 150 151 152 156 168 162 183 201 215 275 317 323 324 324 214 250 248